FW2116 Weather Reports


Display with metric or nautical units.
time (UTC)temp
F
wind
direction
speed
MPH
gust
MPH
rain 1hr
in
rain 24hr
in
rain mn
in
humidity
%
barometer
mb
20260505041517 65 219 0.0 1.0 0.00 0.00 0.00 68 1011.3
20260505041017 65 155 0.0 1.0 0.00 0.00 0.00 68 1011.1
20260505040517 65 290 0.0 3.0 0.00 0.00 0.00 68 1011.1
20260505040034 66 4 0.0 4.0 0.00 0.00 0.00 67 1010.9
20260505035517 66 335 1.0 4.0 0.00 0.00 0.00 67 1010.9
20260505035016 66 18 0.0 3.0 0.00 0.00 0.00 67 1010.8
20260505034525 67 324 1.0 3.0 0.00 0.00 0.00 67 1010.7
20260505034016 67 339 0.0 1.0 0.00 0.00 0.00 66 1010.6
20260505033516 68 302 0.0 1.0 0.00 0.00 0.00 66 1010.6
20260505033017 68 41 0.0 4.0 0.00 0.00 0.00 65 1010.5
20260505032516 69 319 1.0 4.0 0.00 0.00 0.00 65 1010.5
20260505032015 69 338 0.0 4.0 0.00 0.00 0.00 65 1010.4
20260505031515 70 308 0.0 3.0 0.00 0.00 0.00 66 1010.3
20260505031015 70 146 0.0 1.0 0.00 0.00 0.00 67 1010.3
20260505030514 71 149 0.0 1.0 0.00 0.00 0.00 67 1010.1
20260505030018 71 137 0.0 1.0 0.00 0.00 0.00 66 1010.0
20260505025516 71 244 0.0 3.0 0.00 0.00 0.00 66 1009.9
20260505025014 72 200 0.0 1.0 0.00 0.00 0.00 65 1009.9
20260505024514 73 236 0.0 1.0 0.00 0.00 0.00 64 1009.9
20260505024014 73 254 0.0 2.0 0.00 0.00 0.00 63 1009.8
20260505023515 74 255 0.0 4.0 0.00 0.00 0.00 62 1009.8
20260505023014 75 202 0.0 4.0 0.00 0.00 0.00 61 1009.8
20260505022513 76 181 0.0 5.0 0.00 0.00 0.00 60 1009.8
20260505022014 76 345 0.0 5.0 0.00 0.00 0.00 60 1009.8
20260505021514 76 152 0.0 2.0 0.00 0.00 0.00 59 1009.7
20260505021016 76 168 0.0 5.0 0.00 0.00 0.00 59 1009.8
20260505020512 77 283 0.0 5.0 0.00 0.00 0.00 59 1009.8
20260505020014 77 155 0.0 3.0 0.00 0.00 0.00 58 1009.7
20260505015512 77 213 0.0 6.0 0.00 0.00 0.00 58 1009.7
20260505015016 77 173 0.0 6.0 0.00 0.00 0.00 58 1009.8
20260505014514 78 259 0.0 3.0 0.00 0.00 0.00 57 1009.8
20260505014011 78 165 0.0 2.0 0.00 0.00 0.00 57 1009.8
20260505013511 77 281 0.0 2.0 0.00 0.00 0.00 57 1009.9
20260505013011 77 303 0.0 4.0 0.00 0.00 0.00 57 1009.8
20260505012511 77 172 1.0 4.0 0.00 0.00 0.00 57 1009.8
20260505012011 78 142 0.0 3.0 0.00 0.00 0.00 56 1009.9
20260505011511 78 288 0.0 4.0 0.00 0.00 0.00 56 1010.1
20260505011012 78 332 0.0 4.0 0.00 0.00 0.00 56 1010.1
20260505010510 78 146 0.0 7.0 0.00 0.00 0.00 55 1010.0
20260505010010 78 289 0.0 3.0 0.00 0.00 0.00 55 1010.1
20260505005508 77 237 0.0 4.0 0.00 0.00 0.00 57 1010.1
20260505005011 77 154 0.0 4.0 0.00 0.00 0.00 56 1010.1
20260505004514 77 155 0.0 4.0 0.00 0.00 0.00 56 1010.1
20260505004007 77 210 1.0 5.0 0.00 0.00 0.00 56 1010.1
20260505003509 77 169 1.0 5.0 0.00 0.00 0.00 56 1010.2
20260505003004 76 191 0.0 6.0 0.00 0.00 0.00 56 1010.2
20260505002504 76 233 3.0 6.0 0.00 0.00 0.00 56 1010.3
20260505002004 77 134 0.0 6.0 0.00 0.00 0.00 56 1010.3
20260505001503 76 302 1.0 6.0 0.00 0.00 0.00 56 1010.3
20260505001103 76 291 2.0 5.0 0.00 0.00 0.00 56 1010.2
20260505000501 76 288 2.0 5.0 0.00 0.00 0.00 56 1010.4
20260505000002 76 326 0.0 6.0 0.00 0.00 0.00 56 1010.4
20260504235600 76 314 1.0 6.0 0.00 0.00 0.00 56 1010.4
20260504235100 77 267 3.0 6.0 0.00 0.00 0.00 55 1010.4
20260504234612 76 200 0.0 3.0 0.00 0.00 0.00 56 1010.3
20260504234100 75 217 0.0 6.0 0.00 0.00 0.00 57 1010.3
20260504233557 76 275 3.0 6.0 0.00 0.00 0.00 56 1010.4
20260504233058 76 146 1.0 2.0 0.00 0.00 0.00 56 1010.4
20260504232555 75 241 0.0 2.0 0.00 0.00 0.00 57 1010.3
20260504232053 75 120 0.0 5.0 0.00 0.00 0.00 56 1010.4
20260504231553 75 249 0.0 5.0 0.00 0.00 0.00 57 1010.4
20260504231051 74 160 1.0 5.0 0.00 0.00 0.00 58 1010.5
20260504230551 74 229 0.0 5.0 0.00 0.00 0.00 58 1010.6
20260504230053 74 246 2.0 4.0 0.00 0.00 0.00 57 1010.7
20260504225552 74 309 0.0 3.0 0.00 0.00 0.00 59 1010.7
20260504225054 74 92 1.0 3.0 0.00 0.00 0.00 58 1010.8
20260504224553 74 252 0.0 4.0 0.00 0.00 0.00 58 1010.7
20260504224048 74 155 1.0 4.0 0.00 0.00 0.00 58 1010.7
20260504223546 73 91 1.0 5.0 0.00 0.00 0.00 59 1010.9
20260504223045 72 89 1.0 5.0 0.00 0.00 0.00 61 1011.0
20260504222545 72 155 1.0 7.0 0.00 0.00 0.00 61 1011.0
20260504222043 72 295 2.0 7.0 0.00 0.00 0.00 60 1011.2
20260504221543 72 212 0.0 5.0 0.00 0.00 0.00 61 1011.3
20260504221042 71 255 2.0 5.0 0.00 0.00 0.00 60 1011.3
20260504220541 71 256 1.0 7.0 0.00 0.00 0.00 62 1011.3
20260504220048 71 169 2.0 6.0 0.00 0.00 0.00 62 1011.4
20260504215541 71 281 2.0 6.0 0.00 0.00 0.00 61 1011.3
20260504215044 71 266 1.0 7.0 0.00 0.00 0.00 62 1011.4
20260504214540 71 302 2.0 7.0 0.00 0.00 0.00 62 1011.4
20260504214040 71 264 1.0 4.0 0.00 0.00 0.00 61 1011.5
20260504213540 71 256 2.0 4.0 0.00 0.00 0.00 60 1011.6
20260504213055 71 62 0.0 5.0 0.00 0.00 0.00 60 1011.7
20260504212539 71 139 1.0 5.0 0.00 0.00 0.00 61 1011.8
20260504212041 71 168 2.0 5.0 0.00 0.00 0.00 61 1011.9
20260504211541 70 309 0.0 5.0 0.00 0.00 0.00 63 1011.9
20260504211036 70 275 0.0 5.0 0.00 0.00 0.00 63 1011.9
20260504210536 70 156 1.0 5.0 0.00 0.00 0.00 62 1011.9
20260504210035 70 179 0.0 4.0 0.00 0.00 0.00 63 1012.1
20260504205533 69 45 0.0 6.0 0.00 0.00 0.00 64 1012.1
20260504205033 69 148 0.0 4.0 0.00 0.00 0.00 65 1012.3
20260504204540 69 312 1.0 6.0 0.00 0.00 0.00 64 1012.3
20260504204032 69 75 1.0 7.0 0.00 0.00 0.00 64 1012.3
20260504203532 69 146 1.0 6.0 0.00 0.00 0.00 64 1012.4
20260504203033 68 174 0.0 8.0 0.00 0.00 0.00 65 1012.6
20260504202531 68 165 2.0 8.0 0.00 0.00 0.00 65 1012.6
20260504202031 68 259 2.0 4.0 0.00 0.00 0.00 64 1012.7
20260504201530 69 278 1.0 4.0 0.00 0.00 0.00 65 1012.6
20260504201029 68 178 1.0 5.0 0.00 0.00 0.00 65 1012.6
20260504200529 68 138 0.0 5.0 0.00 0.00 0.00 65 1012.8
20260504200027 68 168 0.0 3.0 0.00 0.00 0.00 66 1012.8
20260504195526 67 191 1.0 4.0 0.00 0.00 0.00 67 1012.8
20260504195027 67 278 1.0 4.0 0.00 0.00 0.00 66 1012.8
20260504194524 67 191 1.0 5.0 0.00 0.00 0.00 67 1012.8
20260504194024 66 248 1.0 5.0 0.00 0.00 0.00 68 1012.8
20260504193523 67 252 1.0 4.0 0.00 0.00 0.00 67 1012.9
20260504193025 67 256 0.0 3.0 0.00 0.00 0.00 67 1012.9
20260504192523 66 134 0.0 3.0 0.00 0.00 0.00 68 1012.9
20260504192022 65 241 0.0 5.0 0.00 0.00 0.00 71 1013.0
20260504191525 65 308 2.0 5.0 0.00 0.00 0.00 70 1013.1
20260504191021 64 152 0.0 5.0 0.00 0.00 0.00 69 1013.1
20260504190523 64 169 1.0 5.0 0.00 0.00 0.00 70 1013.2
20260504190026 64 246 1.0 5.0 0.00 0.00 0.00 70 1013.3
20260504185520 64 211 0.0 4.0 0.00 0.00 0.00 71 1013.3
20260504185020 63 286 1.0 9.0 0.00 0.00 0.00 72 1013.3
20260504184520 63 228 3.0 9.0 0.00 0.00 0.00 72 1013.4
20260504184022 62 191 2.0 8.0 0.00 0.00 0.00 72 1013.4
20260504183519 62 244 0.0 7.0 0.00 0.00 0.00 73 1013.4
20260504183019 61 316 0.0 7.0 0.00 0.00 0.00 73 1013.4
20260504182518 61 140 1.0 7.0 0.00 0.00 0.00 73 1013.4
20260504182018 61 176 0.0 2.0 0.00 0.00 0.00 75 1013.3
20260504181520 60 347 0.0 5.0 0.00 0.00 0.00 75 1013.3
20260504181018 60 144 1.0 5.0 0.00 0.00 0.00 75 1013.4
20260504180518 60 176 0.0 3.0 0.00 0.00 0.00 75 1013.4
20260504180017 60 224 0.0 3.0 0.00 0.00 0.00 76 1013.4
20260504175519 59 270 0.0 4.0 0.00 0.00 0.00 76 1013.4
20260504175020 59 158 0.0 4.0 0.00 0.00 0.00 76 1013.3
20260504174520 59 240 1.0 5.0 0.00 0.00 0.00 76 1013.4
20260504174017 59 125 1.0 6.0 0.00 0.00 0.00 76 1013.3
20260504173517 59 141 1.0 6.0 0.00 0.00 0.00 76 1013.3
20260504173017 59 162 0.0 3.0 0.00 0.00 0.00 76 1013.3
20260504172515 59 219 0.0 3.0 0.00 0.00 0.00 77 1013.3
20260504172019 59 150 0.0 5.0 0.00 0.00 0.00 77 1013.4
20260504171516 58 158 2.0 10.0 0.00 0.00 0.00 77 1013.3
20260504171015 58 180 2.0 10.0 0.00 0.00 0.00 77 1013.3
20260504170515 58 141 3.0 9.0 0.00 0.00 0.00 76 1013.3
20260504151008 57 148 0.0 4.0 0.00 0.00 0.00 79 1012.7
20260504150506 57 122 1.0 4.0 0.00 0.00 0.00 79 1012.7
20260504141001 55 186 1.0 5.0 0.00 0.00 0.00 81 1012.1
20260504140501 55 208 1.0 6.0 0.00 0.00 0.00 81 1012.1
20260504140103 55 146 1.0 6.0 0.00 0.00 0.00 81 1012.0
20260504130553 56 147 0.0 2.0 0.00 0.00 0.00 80 1011.1
20260504110537 56 79 0.0 0.0 0.00 0.00 0.00 81 1009.2
20260504100529 57 45 0.0 0.0 0.00 0.00 0.00 81 1008.6
20260504081513 61 15 0.0 0.0 0.00 0.00 0.00 72 1007.9
20260504081013 61 15 0.0 0.0 0.00 0.00 0.00 72 1007.9
20260504080511 62 15 0.0 0.0 0.00 0.00 0.00 72 1007.9
20260504060106 71 71 0.0 1.0 0.00 0.00 0.00 52 1007.1
20260504050555 72 236 0.0 0.0 0.00 0.00 0.00 53 1007.0
20260504050105 73 236 0.0 0.0 0.00 0.00 0.00 53 1006.9